Location: Vale
(35.4830°N, 81.3830°W)
Time: 12:44:45
(UTC-04:00)

Amateur Radio Satellites - All Passes

Search period start: 25 July 2017 12:14
Search period end: 26 July 2017 12:14
Location: Vale, 35.4830°N, 81.3830°W

Satellite Date Start Highest point End Downlink Frequencies (MHz)
Time Altitude Azimuth
DELFI C3 25 Jul 12:19:44 12:21:12 12° 293° (WNW) 12:22:39 145.870
AIST 2D 25 Jul 12:26:11 12:29:27 38° 262° (W) 12:32:43 435.315
Oscar 19 25 Jul 12:44:32 12:46:03 11° 62° (ENE) 12:47:33 437.125/150
LO-87 25 Jul 12:44:45 12:48:19 61° 284° (WNW) 12:51:50 145.935 - 145.965
SPROUT 25 Jul 12:46:33 12:48:47 14° 93° (E) 12:50:59 437.525
BEESAT 3 25 Jul 12:47:20 12:51:05 42° 115° (ESE) 12:54:54 437.485
ESTCUBE 1 25 Jul 12:47:32 12:52:03 68° 101° (E) 12:56:33 437.505/2401.250
NO-84 25 Jul 12:55:29 12:56:39 12° 330° (NNW) 12:57:50 435.350 FM
Gurwin Techsat 1B 25 Jul 13:11:29 13:14:11 14° 63° (ENE) 13:16:53 435.225
DUCHIFAT 1 25 Jul 13:13:17 13:17:15 39° 261° (W) 13:21:14 145.980
POLYITAN 1 25 Jul 13:16:34 13:20:16 28° 263° (W) 13:23:58 437.675
BEESAT 2 25 Jul 13:27:52 13:31:33 38° 114° (ESE) 13:35:17 435.950
QB50P2 25 Jul 13:30:28 13:33:27 18° 266° (W) 13:36:26 145.880/145.840
VELOX 1 25 Jul 13:32:08 13:36:23 41° 99° (E) 13:40:35 145.980
DX 1 25 Jul 13:38:26 13:40:30 13° 93° (E) 13:42:34 434.975-435.025
BUGSAT 1 25 Jul 13:40:28 13:44:42 72° 259° (W) 13:48:56 437.445
NANOSAT C BR1 25 Jul 13:42:32 13:45:14 16° 266° (W) 13:47:56 145.865
EO-79 25 Jul 13:43:03 13:45:26 15° 267° (W) 13:47:52 145.935-145.965
50 SAT 25 Jul 13:45:30 13:48:06 20° 96° (E) 13:50:42 437.505
AO-85 25 Jul 13:48:21 13:52:02 35° 304° (NW) 13:55:40 145.980
RS-15 25 Jul 14:12:17 14:16:55 13° 95° (E) 14:21:35 29.354- 29.394
UKube-1 25 Jul 14:19:03 14:22:40 25° 97° (E) 14:26:14 .
Oscar 19 25 Jul 14:19:33 14:24:39 78° 258° (WSW) 14:29:47 437.125/150
SPROUT 25 Jul 14:20:50 14:24:49 40° 287° (WNW) 14:28:47 437.525
BEESAT 3 25 Jul 14:26:24 14:28:51 16° 311° (NW) 14:31:20 437.485
ESTCUBE 1 25 Jul 14:27:31 14:28:13 10° 296° (WNW) 14:28:56 437.505/2401.250
AO-7 25 Jul 14:34:15 14:40:26 24° 57° (ENE) 14:46:39 .
Gurwin Techsat 1B 25 Jul 14:48:14 14:53:30 66° 258° (WSW) 14:58:49 435.225
PCSat 25 Jul 15:05:56 15:11:20 66° 62° (ENE) 15:16:42 145.827
O/OREOS (USA 219) 25 Jul 15:06:12 15:09:48 24° 102° (ESE) 15:13:25 437.305
BEESAT 2 25 Jul 15:06:47 15:09:26 17° 310° (NW) 15:12:07 435.950
SO-50 25 Jul 15:09:38 15:13:01 20° 50° (NE) 15:16:25 436.795
VELOX 1 25 Jul 15:09:46 15:12:26 16° 294° (WNW) 15:15:06 145.980
DX 1 25 Jul 15:12:40 15:16:52 45° 287° (WNW) 15:21:02 434.975-435.025
50 SAT 25 Jul 15:18:20 15:20:40 17° 290° (WNW) 15:23:00 437.505
UKube-1 25 Jul 15:55:05 15:58:32 23° 291° (WNW) 16:01:58 .
BEESAT 25 Jul 16:00:29 16:04:45 33° 98° (E) 16:09:00 436.000
ITAMSAT 1 25 Jul 16:11:43 16:16:57 89° 71° (ENE) 16:22:13 435.822/435.867
ITUPSAT 1 25 Jul 16:13:46 16:18:20 45° 100° (E) 16:22:52 437.325
RS-15 25 Jul 16:15:05 16:27:04 71° 113° (ESE) 16:39:19 29.354- 29.394
AO-7 25 Jul 16:24:03 16:32:23 73° 254° (WSW) 16:40:47 .
O/OREOS (USA 219) 25 Jul 16:45:18 16:49:04 26° 297° (WNW) 16:52:50 437.305
SO-50 25 Jul 16:49:20 16:53:36 40° 246° (WSW) 16:57:54 436.795
PCSat 25 Jul 16:51:28 16:54:05 14° 257° (WSW) 16:56:42 145.827
MOZHAYETS 4 25 Jul 16:57:16 17:01:49 75° 284° (WNW) 17:06:22
CUBESAT XI-V 25 Jul 17:33:02 17:37:33 47° 99° (E) 17:42:04 437.345
KKS-1 25 Jul 17:35:35 17:39:14 24° 96° (E) 17:42:51 437.445
BEESAT 25 Jul 17:38:40 17:42:18 22° 292° (WNW) 17:45:54 436.000
NO-84 25 Jul 17:51:46 17:54:10 16° 34° (NE) 17:56:40 435.350 FM
ITUPSAT 1 25 Jul 17:52:48 17:55:45 17° 294° (WNW) 17:58:43 437.325
KAITUO 1B 25 Jul 17:53:33 17:54:02 10° 67° (ENE) 17:54:31 145.475/437.950
LilacSat-2 25 Jul 17:54:32 17:56:55 16° 69° (ENE) 17:59:19 437.200
CUTE-I 25 Jul 18:03:39 18:07:57 25° 67° (ENE) 18:12:17 437.470
STARS 25 Jul 18:04:15 18:07:32 20° 95° (E) 18:10:46 437.465
YUBILEINY 25 Jul 18:05:06 18:10:47 19° 80° (E) 18:16:28 435.215
XW-2F 25 Jul 18:07:33 18:10:23 21° 71° (ENE) 18:13:11 145.980 - 146.000
DOVE 4 25 Jul 18:14:40 18:19:29 88° 72° (ENE) 18:24:37 437.250
AO-7 25 Jul 18:24:47 18:26:17 11° 270° (W) 18:27:48 .
RS-15 25 Jul 18:29:34 18:40:31 37° 316° (NW) 18:51:39 29.354- 29.394
XW-2D 25 Jul 18:35:43 18:39:22 54° 75° (ENE) 18:43:02 145.860 - 145.880
XW-2B 25 Jul 18:45:43 18:49:26 73° 77° (ENE) 18:53:11 145.730 - 145.750
HO-68 25 Jul 18:55:21 19:01:26 31° 64° (ENE) 19:07:31 435.675
XW-2C 25 Jul 19:03:07 19:06:49 62° 259° (W) 19:10:33 145.795 - 145.815
NUDT-PHONESAT 25 Jul 19:08:39 19:12:20 74° 258° (WSW) 19:16:01 437.300
CUBESAT XI-V 25 Jul 19:11:47 19:14:30 15° 294° (WNW) 19:17:12 437.345
KKS-1 25 Jul 19:11:59 19:15:41 26° 291° (WNW) 19:19:21 437.445
CUBEBUG 2 25 Jul 19:22:20 19:25:19 17° 68° (ENE) 19:28:15 437.445
KAITUO 1B 25 Jul 19:24:05 19:27:36 42° 261° (W) 19:31:07 145.475/437.950
LilacSat-2 25 Jul 19:27:43 19:30:57 27° 263° (W) 19:34:13 437.200
NO-84 25 Jul 19:28:01 19:31:59 75° 229° (SW) 19:36:13 435.350 FM
CUTE 1.7 + AOD 2 25 Jul 19:35:41 19:39:37 41° 74° (ENE) 19:43:34 437.475
STARS 25 Jul 19:40:01 19:43:50 30° 290° (WNW) 19:47:39 437.465
XW-2F 25 Jul 19:41:33 19:44:22 20° 265° (W) 19:47:12 145.980 - 146.000
CUTE-I 25 Jul 19:42:52 19:47:46 36° 262° (W) 19:52:42 437.470
SEEDS 25 Jul 19:46:58 19:50:43 34° 73° (ENE) 19:54:29 437.485
YUBILEINY 25 Jul 19:57:41 20:06:31 77° 277° (W) 20:15:23 435.215
ISS 25 Jul 20:11:51 20:14:27 22° 130° (SE) 20:17:02 437.550
XW-2A 25 Jul 20:17:17 20:20:40 87° 73° (ENE) 20:24:03 145.665 - 145.685
UWE-3 25 Jul 20:17:41 20:21:55 38° 73° (ENE) 20:26:05 435.000/436.395/437.385
Tancredo 1 25 Jul 20:25:21 20:28:15 65° 319° (NW) 20:31:10 437.200
AAUSAT CUBESAT 2 25 Jul 20:28:29 20:32:24 46° 74° (ENE) 20:36:21 437.432
ZACube-1 25 Jul 20:30:31 20:34:19 28° 71° (ENE) 20:38:03 437.345
STRAND 1 25 Jul 20:35:22 20:40:21 53° 100° (E) 20:45:19 437.568
HO-68 25 Jul 20:42:03 20:48:51 46° 260° (W) 20:55:42 435.675
RS-15 25 Jul 20:52:01 20:58:25 15° 349° (N) 21:04:47 29.354- 29.394
nSIGHT-1 25 Jul 20:52:44 20:55:56 74° 136° (SE) 20:59:09 .
Oscar 11 25 Jul 20:55:22 20:59:16 35° 72° (ENE) 21:03:10 .
CUBEBUG 2 25 Jul 20:57:04 21:01:33 43° 261° (W) 21:05:58 437.445
BEESAT 3 25 Jul 21:08:34 21:09:58 11° 47° (NE) 21:11:21 437.485
AO-73 25 Jul 21:09:37 21:14:02 73° 77° (ENE) 21:18:23 145.935
CUTE 1.7 + AOD 2 25 Jul 21:13:40 21:15:37 13° 268° (W) 21:17:34 437.475
SEEDS 25 Jul 21:23:58 21:26:28 16° 267° (W) 21:28:59 437.485
DELFI C3 25 Jul 21:26:18 21:28:53 17° 69° (ENE) 21:31:28 145.870
EO-88 25 Jul 21:43:40 21:45:52 15° 69° (ENE) 21:48:04 145.990 - 145.960
ISS 25 Jul 21:47:55 21:50:48 29° 325° (NW) 21:53:42 437.550
BEESAT 2 25 Jul 21:50:05 21:51:17 11° 46° (NE) 21:52:28 435.950
UWE-3 25 Jul 21:55:28 21:58:26 17° 266° (W) 22:01:23 435.000/436.395/437.385
YUBILEINY 25 Jul 22:01:15 22:04:49 13° 297° (WNW) 22:08:23 435.215
FO-29 25 Jul 22:03:46 22:09:25 27° 92° (E) 22:14:31 435.910
AAUSAT CUBESAT 2 25 Jul 22:06:57 22:08:04 11° 268° (W) 22:09:12 437.432
ZACube-1 25 Jul 22:07:05 22:10:32 22° 265° (W) 22:13:56 437.345
STRAND 1 25 Jul 22:16:00 22:19:03 16° 296° (WNW) 22:22:06 437.568
AO-85 25 Jul 22:21:01 22:25:18 72° 60° (ENE) 22:29:52 145.980
TIGRISAT 25 Jul 22:23:15 22:25:26 14° 93° (E) 22:27:36 435.000
nSIGHT-1 25 Jul 22:30:53 22:32:40 14° 333° (NNW) 22:34:26 .
Oscar 11 25 Jul 22:32:45 22:35:27 16° 266° (W) 22:38:11 .
BEESAT 3 25 Jul 22:44:00 22:47:56 62° 243° (WSW) 22:51:48 437.485
PRISM 25 Jul 22:57:52 23:01:37 31° 98° (E) 23:05:20 437.425
DELFI C3 25 Jul 22:59:59 23:03:24 28° 263° (W) 23:06:51 145.870
RS-15 25 Jul 23:09:34 23:18:05 21° 27° (NNE) 23:26:19 29.354- 29.394
UNISAT 6 25 Jul 23:14:01 23:18:17 64° 100° (E) 23:22:30 437.425
JUGNU 25 Jul 23:14:21 23:16:54 13° 168° (SSE) 23:19:28 437.505
EO-88 25 Jul 23:16:13 23:19:17 26° 263° (W) 23:22:23 145.990 - 145.960
LO-87 25 Jul 23:17:44 23:20:54 29° 73° (ENE) 23:24:06 145.935 - 145.965
BEESAT 2 25 Jul 23:25:26 23:29:28 69° 243° (WSW) 23:33:26 435.950
ESTCUBE 1 25 Jul 23:43:57 23:48:08 41° 73° (ENE) 23:52:20 437.505/2401.250
FO-29 25 Jul 23:48:06 23:54:40 44° 291° (WNW) 00:00:30 435.910
M-CUBED/EXP-1 PRIME 25 Jul 23:49:33 23:54:05 50° 104° (ESE) 23:58:35 437.505
AIST 2D 25 Jul 23:54:41 23:57:01 17° 95° (E) 23:59:21 435.315
TIGRISAT 25 Jul 23:58:16 00:02:18 40° 287° (WNW) 00:06:16 435.000
VELOX 1 26 Jul 00:26:37 00:30:15 26° 70° (ENE) 00:33:54 145.980
PRISM 26 Jul 00:33:48 00:36:37 18° 292° (WNW) 00:39:25 437.425
LO-87 26 Jul 00:52:30 00:54:22 13° 267° (W) 00:56:14 145.935 - 145.965
DUCHIFAT 1 26 Jul 01:00:01 01:03:55 37° 99° (E) 01:07:46 145.980
JUGNU 26 Jul 01:01:22 01:05:10 17° 178° (S) 01:08:57 437.505
POLYITAN 1 26 Jul 01:03:38 01:07:46 55° 100° (E) 01:11:51 437.675
SPROUT 26 Jul 01:10:18 01:14:35 83° 257° (WSW) 01:18:55 437.525
UKube-1 26 Jul 01:11:29 01:14:02 15° 66° (ENE) 01:16:34 .
QB50P2 26 Jul 01:16:41 01:20:54 90° 111° (ESE) 01:25:05 145.880/145.840
O/OREOS (USA 219) 26 Jul 01:18:31 01:22:27 29° 64° (ENE) 01:26:21 437.305
RS-15 26 Jul 01:21:46 01:33:45 63° 55° (NE) 01:45:02 29.354- 29.394
ESTCUBE 1 26 Jul 01:22:31 01:25:05 15° 267° (W) 01:27:39 437.505/2401.250
M-CUBED/EXP-1 PRIME 26 Jul 01:25:12 01:28:02 16° 298° (WNW) 01:30:53 437.505
BUGSAT 1 26 Jul 01:26:06 01:29:03 19° 95° (E) 01:31:58 437.445
AIST 2D 26 Jul 01:27:26 01:30:08 21° 288° (WNW) 01:32:49 435.315
NANOSAT C BR1 26 Jul 01:27:52 01:32:04 82° 286° (WNW) 01:36:14 145.865
EO-79 26 Jul 01:28:26 01:32:38 72° 284° (WNW) 01:36:47 145.935-145.965
50 SAT 26 Jul 01:45:21 01:48:44 86° 258° (WSW) 01:52:09 437.505
VELOX 1 26 Jul 02:03:01 02:06:35 24° 264° (W) 02:10:12 145.980
DX 1 26 Jul 02:04:33 02:08:53 81° 257° (WSW) 02:13:17 434.975-435.025
SRMSAT 26 Jul 02:05:14 02:07:49 13° 169° (SSE) 02:10:24 437.500
Oscar 19 26 Jul 02:34:09 02:39:09 47° 100° (E) 02:44:07 437.125/150
DUCHIFAT 1 26 Jul 02:36:50 02:39:13 15° 293° (WNW) 02:41:35 145.980
POLYITAN 1 26 Jul 02:41:59 02:43:01 11° 295° (WNW) 02:44:02 437.675
ISS 26 Jul 02:42:37 02:43:59 12° 25° (NNE) 02:45:20 437.550
UKube-1 26 Jul 02:45:38 02:49:40 40° 261° (W) 02:53:45 .
JUGNU 26 Jul 02:50:11 02:53:26 15° 189° (S) 02:56:41 437.505
Tancredo 1 26 Jul 02:51:22 02:53:58 27° 35° (NE) 02:56:33 437.200
O/OREOS (USA 219) 26 Jul 02:58:12 03:01:39 22° 258° (WSW) 03:05:05 437.305
BUGSAT 1 26 Jul 03:00:57 03:04:22 26° 289° (WNW) 03:07:45 437.445
BEESAT 26 Jul 03:04:00 03:08:03 28° 69° (ENE) 03:12:05 436.000
Gurwin Techsat 1B 26 Jul 03:07:29 03:12:46 63° 101° (ESE) 03:18:01 435.225
ITUPSAT 1 26 Jul 03:17:28 03:21:52 38° 71° (ENE) 03:26:16 437.325
nSIGHT-1 26 Jul 03:23:01 03:25:40 23° 33° (NNE) 03:28:20 .
RS-15 26 Jul 03:35:17 03:45:22 34° 256° (WSW) 03:55:03 29.354- 29.394
SRMSAT 26 Jul 03:52:29 03:56:13 17° 179° (S) 03:59:56 437.500
MOZHAYETS 4 26 Jul 03:55:41 04:00:14 72° 77° (ENE) 04:04:49
PCSat 26 Jul 04:04:48 04:06:56 12° 102° (ESE) 04:09:03 145.827
Oscar 19 26 Jul 04:14:34 04:18:03 19° 294° (WNW) 04:21:32 437.125/150
ISS 26 Jul 04:17:38 04:20:53 82° 39° (NE) 04:24:09 437.550
Tancredo 1 26 Jul 04:27:02 04:29:13 19° 230° (SW) 04:31:24 437.200
ITAMSAT 1 26 Jul 04:27:54 04:32:46 40° 99° (E) 04:37:35 435.822/435.867
AO-7 26 Jul 04:29:19 04:37:19 47° 101° (ESE) 04:45:12 .
KKS-1 26 Jul 04:31:23 04:34:14 17° 67° (ENE) 04:37:03 437.445
CUBESAT XI-V 26 Jul 04:33:27 04:37:30 32° 71° (ENE) 04:41:34 437.345
BEESAT 26 Jul 04:41:45 04:45:43 26° 264° (W) 04:49:42 436.000
Gurwin Techsat 1B 26 Jul 04:49:16 04:52:07 15° 297° (WNW) 04:54:59 435.225
ITUPSAT 1 26 Jul 04:56:23 04:59:45 19° 265° (W) 05:03:09 437.325
STARS 26 Jul 04:59:02 05:01:10 13° 65° (ENE) 05:03:18 437.465
nSIGHT-1 26 Jul 04:59:13 05:02:05 29° 228° (SW) 05:04:55 .
SO-50 26 Jul 05:23:29 05:24:47 11° 107° (ESE) 05:26:05 436.795
SRMSAT 26 Jul 05:41:32 05:44:38 15° 189° (S) 05:47:43 437.500
PCSat 26 Jul 05:44:12 05:49:36 72° 297° (WNW) 05:55:03 145.827
KKS-1 26 Jul 06:06:14 06:10:25 40° 261° (W) 06:14:38 437.445
ITAMSAT 1 26 Jul 06:08:02 06:11:55 22° 294° (WNW) 06:15:47 435.822/435.867
CUBESAT XI-V 26 Jul 06:11:29 06:14:52 20° 266° (W) 06:18:17 437.345
YUBILEINY 26 Jul 06:12:00 06:20:22 47° 77° (ENE) 06:28:37 435.215
DOVE 4 26 Jul 06:17:01 06:21:43 33° 96° (E) 06:26:12 437.250
AO-7 26 Jul 06:22:25 06:29:46 36° 298° (WNW) 06:37:05 .
CUTE-I 26 Jul 06:25:25 06:27:17 12° 91° (E) 06:29:08 437.470
STARS 26 Jul 06:32:44 06:37:01 50° 260° (W) 06:41:21 437.465
XW-2C 26 Jul 06:39:34 06:41:55 16° 94° (E) 06:44:16 145.795 - 145.815
NUDT-PHONESAT 26 Jul 06:43:36 06:45:07 12° 93° (E) 06:46:39 437.300
KAITUO 1B 26 Jul 06:58:29 07:01:19 20° 96° (E) 07:04:09 145.475/437.950
SO-50 26 Jul 07:00:11 07:04:40 63° 301° (WNW) 07:09:10 436.795
LilacSat-2 26 Jul 07:03:16 07:06:46 34° 98° (E) 07:10:15 437.200
XW-2F 26 Jul 07:15:26 07:19:02 44° 99° (E) 07:22:39 145.980 - 146.000
PCSat 26 Jul 07:33:00 07:33:57 10° 316° (NW) 07:34:54 145.827
XW-2D 26 Jul 07:44:57 07:48:40 62° 283° (WNW) 07:52:23 145.860 - 145.880
STRAND 1 26 Jul 07:48:02 07:53:04 56° 73° (ENE) 07:58:07 437.568
DOVE 4 26 Jul 07:54:54 07:59:09 26° 292° (WNW) 08:03:15 437.250
XW-2B 26 Jul 07:55:08 07:58:45 46° 285° (WNW) 08:02:22 145.730 - 145.750
CUTE-I 26 Jul 08:02:26 08:07:47 71° 286° (WNW) 08:13:04 437.470
YUBILEINY 26 Jul 08:09:18 08:16:47 33° 275° (W) 08:24:13 435.215
HO-68 26 Jul 08:12:47 08:19:30 42° 99° (E) 08:26:10 435.675
XW-2C 26 Jul 08:12:53 08:16:05 27° 288° (WNW) 08:19:18 145.795 - 145.815
FO-29 26 Jul 08:15:29 08:17:43 11° 55° (NE) 08:19:58 435.910
NUDT-PHONESAT 26 Jul 08:15:46 08:19:05 33° 287° (WNW) 08:22:25 437.300
KAITUO 1B 26 Jul 08:32:23 08:35:11 21° 289° (WNW) 08:38:00 145.475/437.950
LilacSat-2 26 Jul 08:38:53 08:40:42 13° 292° (WNW) 08:42:31 437.200
CUBEBUG 2 26 Jul 08:50:56 08:55:01 47° 99° (E) 08:59:01 437.445
XW-2F 26 Jul 08:52:17 08:52:43 10° 293° (WNW) 08:53:10 145.980 - 146.000
CUTE 1.7 + AOD 2 26 Jul 08:58:44 09:02:56 61° 284° (WNW) 09:07:07 437.475
AO-73 26 Jul 09:01:47 09:04:20 16° 94° (E) 09:06:52 145.935
SEEDS 26 Jul 09:08:33 09:12:47 78° 283° (WNW) 09:17:00 437.485
XW-2A 26 Jul 09:14:28 09:17:44 53° 284° (WNW) 09:20:59 145.665 - 145.685
TIGRISAT 26 Jul 09:21:18 09:21:27 10° 64° (ENE) 09:21:36 435.000
STRAND 1 26 Jul 09:29:47 09:32:32 14° 268° (W) 09:35:17 437.568
PRISM 26 Jul 09:45:11 09:47:37 16° 67° (ENE) 09:50:04 437.425
UWE-3 26 Jul 09:46:20 09:50:27 62° 284° (WNW) 09:54:30 435.000/436.395/437.385
AAUSAT CUBESAT 2 26 Jul 09:48:28 09:52:34 58° 285° (WNW) 09:56:40 437.432
FO-29 26 Jul 09:53:43 10:01:09 63° 72° (ENE) 10:08:55 435.910
ZACube-1 26 Jul 09:57:07 10:01:17 90° 273° (W) 10:05:24 437.345
HO-68 26 Jul 10:00:48 10:06:59 33° 295° (WNW) 10:13:11 435.675
UNISAT 6 26 Jul 10:09:22 10:13:40 39° 73° (ENE) 10:17:57 437.425
Oscar 11 26 Jul 10:20:55 10:25:13 72° 284° (WNW) 10:29:31 .
CUBEBUG 2 26 Jul 10:29:34 10:31:09 12° 294° (WNW) 10:32:44 437.445
M-CUBED/EXP-1 PRIME 26 Jul 10:33:00 10:36:14 31° 66° (ENE) 10:39:42 437.505
AO-73 26 Jul 10:36:56 10:40:38 32° 287° (WNW) 10:44:19 145.935
DELFI C3 26 Jul 10:39:16 10:43:03 40° 98° (E) 10:46:49 145.870
NO-84 26 Jul 10:42:59 10:45:46 42° 129° (SE) 10:48:43 435.350 FM
EO-88 26 Jul 10:47:26 10:50:37 28° 97° (E) 10:53:48 145.990 - 145.960
TIGRISAT 26 Jul 10:52:51 10:57:30 73° 258° (WSW) 11:02:06 435.000
PRISM 26 Jul 11:18:49 11:22:34 35° 262° (W) 11:26:22 437.425
FO-29 26 Jul 11:40:37 11:46:31 25° 268° (W) 11:52:40 435.910
ESTCUBE 1 26 Jul 11:41:43 11:42:57 11° 92° (E) 11:44:12 437.505/2401.250
UNISAT 6 26 Jul 11:47:26 11:50:28 17° 266° (W) 11:53:29 437.425
DUCHIFAT 1 26 Jul 11:49:18 11:52:22 20° 69° (ENE) 11:55:26 145.980
POLYITAN 1 26 Jul 11:53:16 11:56:53 28° 71° (ENE) 12:00:30 437.675
AIST 2D 26 Jul 11:57:40 12:01:09 77° 77° (ENE) 12:04:37 435.315
QB50P2 26 Jul 12:05:55 12:09:58 43° 73° (ENE) 12:14:00 145.880/145.840
M-CUBED/EXP-1 PRIME 26 Jul 12:08:51 12:10:48 14° 263° (W) 12:12:50 437.505
